IRIDIUM 33 DEB, 38028

Orbit data source: Space-Track

IRIDIUM 33 DEB, 38028 is space debris in LEO originally from a launch on Sun, 14 Sep 1997 UTC launched from the Tyuratam Missile And Space Complex (TTMTR). The debris from Iridium 33, an American commercial communications satellite, has been tracked extensively since its accidental collision with the defunct Russian satellite Cosmos 2251 in 2009. This event, occurring at high speed in low Earth orbit (LEO), generated thousands of pieces of space debris, significantly increasing the risk of further collisions. The Iridium 33 debris cloud has impacted space traffic management and orbital debris mitigation strategies, making it a subject of ongoing study in space situational awareness.

Loading next visibility...
Identifier
38028, 1997-051YQ
Orbit
LEO
Country
Flag of USUS
Related business
Manufacturer
Unknown
Mission
Spacecraft
Bus & Motor
Unknown
Mass
Unknown
Launch date (UTC)
1997-09-14 (29 years ago)
Launch vehicle
Unknown
Launch site
Tyuratam Missile And Space Complex (TTMTR)
Object type
Payload
Rocket body
Debris
Shape & HBR
Unknown shape, 0.1 m
Radar Cross Section
Small (<0.1 m²)

Expand to show TLE details & history
Last TLE update: 1 day ago

TLE from 1 day ago
0 IRIDIUM 33 DEB
1 38028U 97051YQ  26207.88233037  .00001359  00000-0  36771-3 0  9999
2 38028  86.3224 261.9024 0030194  92.0472 268.4189 14.46807587687642
Epoch: 2026-07-26T21:10Z
TLE epoch observation values (Epoch: 2026-07-26T21:10:33.343Z)
Latitude
-0.00005°
Longitude
-0.31042°
Altitude
739.82 km
Speed
7.485 km/s
True Right ascension
17h 27m 36s
True Declination
0° 00' 00"
Sunlit
Object was in full shadow at epoch
Visualization orbit readout
Latitude
Unknown
Longitude
Unknown
Altitude
Unknown
Speed
Unknown
Apparent Right ascension
Unknown
Apparent Declination
Unknown
Sunlit
N/A
Visualization observer readout
Local Sidereal Time
20:03:30
Azimuth
Unknown
Elevation
Unknown
Doppler factor
Unknown
Orbital elements
Apogee altitude
754.514 km
Perigee altitude
711.571 km
Semi-major axis
7,111.18 km
Eccentricity
0.00302
Inclination
86.3224°
RAAN
261.9024°
Arg. of periapsis
92.0472°
True anomaly
268.07307°
Mean anomaly
268.4189°
Eccentric anomaly
268.24598°
Mean motion
3.61935 °/min
Orbital period
99.47 mins
BSTAR
0.00036771
Loading maneuver chart data...
Computing Atmospheric mass density...
Loading historical data...
Loading historical data...
Loading historical data...
Loading historical data...
Loading historical data...
Loading historical data...
Loading historical data...

Documentation

Showing up to 5 results
|